WX4SKY Weather Reports


Display with metric or nautical units.
time (UTC)temp
F
wind
direction
speed
MPH
gust
MPH
rain 1hr
in
rain 24hr
in
rain mn
in
humidity
%
barometer
mb
20260506023054 63 0 0.0 0.0 0.00 0.00 0.00 67 1014.8
20260506021559 63 0 0.0 0.0 0.00 0.00 0.00 66 1015.1
20260506020101 63 0 0.0 0.0 0.00 0.00 0.00 63 1015.1
20260506014556 64 0 0.0 0.0 0.00 0.00 0.00 62 1014.8
20260506013055 65 0 0.0 0.0 0.00 0.00 0.00 61 1014.8
20260506011601 66 0 0.0 0.0 0.00 0.00 0.00 63 1015.0
20260506010059 67 0 0.0 0.0 0.00 0.00 0.00 59 1014.7
20260506004552 68 0 0.0 0.0 0.00 0.00 0.00 54 1014.8
20260506003058 69 0 0.0 0.0 0.00 0.00 0.00 53 1015.0
20260506001554 70 0 0.0 0.0 0.00 0.00 0.00 53 1015.3
20260506000100 71 0 0.0 0.0 0.00 0.00 0.00 51 1015.0
20260505234603 72 0 0.0 0.0 0.00 0.00 0.00 50 1015.0
20260505233109 73 0 0.0 3.0 0.00 0.00 0.00 48 1015.0
20260505231602 75 0 0.0 2.0 0.00 0.00 0.00 48 1015.0
20260505230053 76 0 0.0 0.0 0.00 0.00 0.00 44 1015.0
20260505224554 77 246 1.0 4.0 0.00 0.00 0.00 42 1014.8
20260505223057 78 0 0.0 1.0 0.00 0.00 0.00 44 1014.5
20260505221554 79 251 0.0 7.0 0.00 0.00 0.00 40 1014.6
20260505220057 81 342 0.0 4.0 0.00 0.00 0.00 36 1014.6
20260505214559 82 18 0.0 4.0 0.00 0.00 0.00 36 1014.6
20260505213054 82 101 1.0 8.0 0.00 0.00 0.00 39 1014.6
20260505211610 83 226 1.0 4.0 0.00 0.00 0.00 35 1014.7
20260505210054 82 41 0.0 6.0 0.00 0.00 0.00 39 1014.9
20260505204602 82 101 1.0 7.0 0.00 0.00 0.00 40 1015.0
20260505203058 82 342 0.0 6.0 0.00 0.00 0.00 39 1015.1
20260505201559 82 324 1.0 8.0 0.00 0.00 0.00 37 1015.5
20260505200054 82 32 1.0 4.0 0.00 0.00 0.00 36 1015.6
20260505194609 81 78 2.0 5.0 0.00 0.00 0.00 38 1015.6
20260505193054 81 330 1.0 6.0 0.00 0.00 0.00 39 1015.8
20260505191554 79 53 1.0 11.0 0.00 0.00 0.00 42 1015.9
20260505190057 80 60 1.0 6.0 0.00 0.00 0.00 44 1015.8
20260505184553 79 98 1.0 7.0 0.00 0.00 0.00 44 1016.3
20260505183055 79 317 1.0 5.0 0.00 0.00 0.00 41 1016.4
20260505181558 79 255 1.0 5.0 0.00 0.00 0.00 43 1016.6
20260505180058 78 45 2.0 6.0 0.00 0.00 0.00 43 1017.0
20260505174557 79 142 1.0 6.0 0.00 0.00 0.00 42 1017.3
20260505173052 78 0 1.0 7.0 0.00 0.00 0.00 46 1017.4
20260505171554 77 319 1.0 6.0 0.00 0.00 0.00 48 1017.3
20260505170055 77 76 1.0 6.0 0.00 0.00 0.00 51 1017.3
20260505164615 76 72 0.0 4.0 0.00 0.00 0.00 49 1017.4
20260505163102 75 116 2.0 5.0 0.00 0.00 0.00 52 1017.4
20260505161605 74 0 2.0 6.0 0.00 0.00 0.00 53 1017.4
20260505153055 73 13 1.0 3.0 0.00 0.00 0.00 55 1018.0
20260505151555 72 148 0.0 4.0 0.00 0.00 0.00 59 1018.1
20260505130112 53 0 0.0 0.0 0.00 0.00 0.00 93 1016.5
20260505124559 52 0 0.0 0.0 0.00 0.00 0.00 93 1016.2
20260505123106 50 0 0.0 0.0 0.00 0.00 0.00 93 1016.3
20260505121553 49 0 0.0 0.0 0.00 0.00 0.00 93 1016.2
20260505120108 48 0 0.0 0.0 0.00 0.00 0.00 93 1016.2
20260505114556 48 0 0.0 0.0 0.00 0.00 0.00 93 1016.2
20260505113104 47 0 0.0 0.0 0.00 0.00 0.00 93 1015.9
20260505111555 47 0 0.0 0.0 0.00 0.00 0.00 93 1015.8
20260505110111 47 0 0.0 1.0 0.00 0.00 0.00 93 1015.7
20260505101550 47 0 0.0 0.0 0.00 0.00 0.00 92 1015.8
20260505100057 47 0 0.0 0.0 0.00 0.00 0.00 92 1015.8
20260505094555 47 0 0.0 0.0 0.00 0.00 0.00 91 1016.0
20260505093108 48 0 0.0 0.0 0.00 0.00 0.00 91 1016.0
20260505091553 48 0 0.0 0.0 0.00 0.00 0.00 91 1016.1
20260505090056 48 0 0.0 0.0 0.00 0.00 0.00 91 1016.2
20260505084555 48 0 0.0 0.0 0.00 0.00 0.00 91 1016.4
20260505083059 48 0 0.0 0.0 0.00 0.00 0.00 91 1016.4
20260505081603 49 0 0.0 0.0 0.00 0.00 0.00 91 1016.2
20260505080104 49 0 0.0 0.0 0.00 0.00 0.00 91 1016.1
20260505074555 49 0 0.0 0.0 0.00 0.00 0.00 91 1016.1
20260505073059 49 0 0.0 0.0 0.00 0.00 0.00 90 1016.1
20260505071623 49 0 0.0 0.0 0.00 0.00 0.00 90 1016.3
20260505070105 49 0 0.0 0.0 0.00 0.00 0.00 89 1016.0
20260505064559 49 0 0.0 0.0 0.00 0.00 0.00 89 1016.0
20260505063054 50 0 0.0 0.0 0.00 0.00 0.00 89 1016.0
20260505061558 50 0 0.0 0.0 0.00 0.00 0.00 89 1016.0
20260505060059 51 0 0.0 0.0 0.00 0.00 0.00 89 1016.2
20260505054559 51 0 0.0 1.0 0.00 0.00 0.00 89 1016.1
20260505053103 51 0 0.0 0.0 0.00 0.00 0.00 88 1016.4
20260505051553 52 0 0.0 0.0 0.00 0.00 0.00 87 1016.3
20260505041555 54 0 0.0 1.0 0.00 0.00 0.00 85 1016.1
20260505040053 54 0 0.0 0.0 0.00 0.00 0.00 82 1016.2
20260505034555 54 0 0.0 0.0 0.00 0.00 0.00 84 1016.3
20260505033055 55 0 0.0 1.0 0.00 0.00 0.00 81 1016.5
20260505031558 55 0 0.0 0.0 0.00 0.00 0.00 81 1016.4
20260505030104 56 0 0.0 0.0 0.00 0.00 0.00 80 1016.3
20260505024555 57 0 0.0 0.0 0.00 0.00 0.00 77 1016.4